Regional Weather Roundup
Issued by NWS

Home | Current Version | Previous Version | Text Only | Print | Product List | Glossary On
Versions: 1 2 3 4 5 6 7 8 9 10 11 12 13 14 15 16 17 18 19 20 21 22 23 24 25 26 27 28 29 30 31 32 33 34 35 36 37 38 39 40 41 42 43 44 45 46 47 48 49 50
000
ASUS43 KFSD 261510
RWRSD

WEATHER ROUNDUP FOR SOUTH DAKOTA
NATIONAL WEATHER SERVICE SIOUX FALLS SD
900 AM CST FRI DEC 26 2014

NOTE: "FAIR" INDICATES FEW OR NO CLOUDS BELOW 12,000 FEET WITH NO
SIGNIFICANT WEATHER AND/OR OBSTRUCTIONS TO VISIBILITY.


SDZ001>005-009-010-012>017-261600-
NORTHWEST AND NORTH CENTRAL SOUTH DAKOTA

CITY           SKY/WX    TMP DP  RH WIND       PRES   REMARKS
BUFFALO          N/A     19  13  77 N5        30.03R WCI  12
FAITH            N/A     19  13  77 N8        30.12R WCI   9
MOBRIDGE       CLOUDY    22  17  81 N13       30.12R WCI  10
$$

SDZ012>016-024>037-041>051-057-063-072>074-261600-
SOUTHWEST AND SOUTH CENTRAL SOUTH DAKOTA

CITY           SKY/WX    TMP DP  RH WIND       PRES   REMARKS
RAPID CTY ARPT CLOUDY    19  14  81 N7        30.08R WCI  10
PIERRE         CLOUDY    23  19  85 N13       30.12R WCI  11
CUSTER         CLOUDY    14  11  87 W3        29.92R
ELLSWORTH AFB  DRIZZLE   19  16  86 N7        30.08  WCI  10
PHILIP         CLOUDY    23  16  74 N10       30.13R WCI  12
PINE RIDGE     CLOUDY    19  14  81 N9        30.06S WCI   8
SPEARFISH      CLOUDY    18  14  86 W5        30.06R WCI  11
WINNER         FRZ RAIN  25  22  88 N17       30.09R FOG     WCI  12
$$

SDZ004>011-016>023-039-040-261600-
NORTHEAST SOUTH DAKOTA

CITY           SKY/WX    TMP DP  RH WIND       PRES   REMARKS
ABERDEEN       CLOUDY    24  21  88 N10       30.14R FOG     WCI  14
WATERTOWN      CLOUDY    22  18  85 N15       30.04R WCI   9
SISSETON         N/A     23  20  88 N15       30.11R WCI  10
$$

SDZ017-020-022-023-036>040-048>070-261600-
SOUTHEAST SOUTH DAKOTA

CITY           SKY/WX    TMP DP  RH WIND       PRES   REMARKS
SIOUX FALLS    CLOUDY    27  23  85 N18       30.03R WCI  14
HURON          PTCLDY    23  17  78 N16       30.09S WCI  10
CHAMBERLAIN    CLOUDY    24  22  93 N9        30.09S WCI  14
MITCHELL       PTCLDY    24  22  91 N13       30.10R WCI  12
YANKTON        CLOUDY    27  23  86 N14       30.06R WCI  15
$$

ABBREVIATIONS USED IN REMARKS
   TC - TEMPERATURE IN CELSIUS
  WCI - WIND CHILL INDEX
   HX - HEAT INDEX
  VSB - VISIBILITY



USA.gov is the U.S. government's official web portal to all federal, state and local government web resources and services.